�ϑ��N����,2022/9/28,,,
�ϑ���,����R����,,,
�ϑ��n�_,"25�ԁA�ܓx34,414710�A�o�x130,551486",,,
���x�v�ԍ�,A009,,,
,,,,
����,�C��,����,����,���l
9:30:00,24,8,1,
9:31:00,25,7,1,
9:32:00,25.1,7,1,
9:33:00,25,7,1,
9:34:00,25,7,1,
9:35:00,25,7,0,
9:36:00,24.9,7,0,
9:37:00,24.9,6,0.5,
9:38:00,24.8,6,0.5,
9:39:00,24.8,8,1,
9:40:00,24.8,7.5,1,
9:41:00,24.9,8,0.5,
9:42:00,24.9,3.5,0.5,
9:43:00,24.9,3.5,1,
9:44:00,24.9,7,1,
9:45:00,24.9,7,0.5,
9:46:00,25,7,0.5,
9:47:00,24.9,7,0.5,
9:48:00,24.8,7,0.5,
9:49:00,24.8,8,2,
9:50:00,24.8,1,1,
9:51:00,24.8,7,1,
9:52:00,24.8,4,0.5,
9:53:00,24.7,8,1,
9:54:00,24.8,8,1,
9:55:00,24.5,7,1,
9:56:00,24.6,7,0.5,
9:57:00,24.6,7,0.5,
9:58:00,24.6,7,0.5,
9:59:00,24.8,7,0.5,
10:00:00,24.8,7,0.5,
10:01:00,24.8,7,1,
10:02:00,24.8,7,1,
10:03:00,24.8,8,2,
10:04:00,24.9,7.5,2,
10:05:00,24.9,5,1,
10:06:00,25,5,0.5,
10:07:00,25,5,0.5,
10:08:00,25,5,0.5,
10:09:00,25,5,0.5,
10:10:00,25.6,6.5,1,
10:11:00,25.7,4,1,
10:12:00,25.9,6,1,
10:13:00,25.9,6,0.5,
10:14:00,26,4,0.5,
10:15:00,26,2,0.5,
10:16:00,26,2,0.5,
10:17:00,26,2,0.5,
10:18:00,26,2,2,
10:19:00,26,8,0.5,
10:20:00,25.9,4,0.5,
10:21:00,25.9,4,1,
10:22:00,25.5,4,1,
10:23:00,25.8,7,0.5,
10:24:00,25.8,7,0.5,
10:25:00,26,5.5,1,
10:26:00,26.1,6,1,
10:27:00,26.1,6,0.5,�������������o�����B�؁X�����𗧂Ă邭�炢�B
10:28:00,26.1,4,0.5,
10:29:00,26.2,1,1,
10:30:00,26.4,1,1,
10:31:00,26.4,1,1,
10:32:00,26.5,8.5,1,
10:33:00,26.5,8.5,1,
10:34:00,26.2,1,1,
10:35:00,26.2,8.5,0.5,
10:36:00,26.2,7,0.5,
10:37:00,26.1,8.5,2,
10:38:00,26.1,8,1,
10:39:00,26.2,7,0.5,
10:40:00,26.2,7,0.5,
10:41:00,26.5,8.5,0.5,
10:42:00,26.9,8.5,0.5,
10:43:00,27,3,1,
10:44:00,27,3,1,
10:45:00,26.5,2,0.5,
10:46:00,26.5,8,1,
10:47:00,26.4,7,1,
10:48:00,26.7,8.5,1,
10:49:00,26.7,8,0.5,
10:50:00,26.7,1,1,
10:51:00,26.8,7,0.5,
10:52:00,26.5,7,1,
10:53:00,26.5,7,1,
10:54:00,26.8,8,1,
10:55:00,26.9,8,0.5,
10:56:00,26.9,5,0.5,
10:57:00,27,8,0.5,
10:58:00,27,8,1,
10:59:00,27,6,1,
11:00:00,27,8,1,
11:01:00,27,8,0.5,
11:02:00,27.1,8,1,
11:03:00,27.5,8.5,1.5,�������������o�����B�؁X�����𗧂Ă邭�炢�B
11:04:00,27.5,8,1,
11:05:00,27.4,8,2,���ŕ��������������B
11:06:00,27,8,1,
11:07:00,27,8,0.5,
11:08:00,27,8,1,
11:09:00,27,7,1,
11:10:00,27,7.5,0.5,
11:11:00,27,8,1,
11:12:00,27,6,2,
11:13:00,27,8,1,
11:14:00,26.9,7,0.5,
11:15:00,26.9,6,1,
11:16:00,26.9,7.5,1,
11:17:00,26.9,8,1,
11:18:00,27,8,1,
11:19:00,27,7,1,
11:20:00,27,6,1,
11:21:00,26.9,6,1,
11:22:00,26.6,1,1,
11:23:00,26.8,1,0.5,
11:24:00,27,8,0.5,
11:25:00,26.8,1,0.5,
11:26:00,26.8,1,0.5,
11:27:00,26.4,6,1,
11:28:00,26.3,6,1,
11:29:00,26.3,7,0.5,
